Hourly Data Report for September 09, 2017

All times are specified in Local Standard Time (LST). Add 1 hour to adjust for Daylight Saving Time where and when it is observed.

CAPE DORSET A
NUNAVUT

64°13'49.000" N
76°31'30.000" W
48.20 m
2400637
71366
YTE

Download Data

Hourly Data (September 2017)
Hourly Data Report for September 9, 2017
Temp Definition
°C
Dew Point Temp Definition
°C
Rel Hum Definition
%
Wind Dir Definition
10's deg

Wind Spd Definition
km/h
Visibility Definition
km
Stn Press Definition
kPa
Hmdx Definition


Wind Chill Definition


Weather Definition


TIME
00:00 Legend Double Dagger 6.6 5.4 92 22 35 8.1 97.98     Fog
01:00 Legend Double Dagger 6.6 5.7 94 23 46 4.8 97.78     Fog
02:00 Legend Double Dagger 5.9 5.5 97 23 43 4.0 97.71     Fog
03:00 Legend Double Dagger 5.3 5.0 98 24 45 2.4 97.65     Fog
04:00 Legend Double Dagger 5.1 5.0 99 25 37 0.8 97.66     Rain,Fog
05:00 Legend Double Dagger 4.8 4.8 100 27 28 0.2 97.70     Rain,Fog
06:00 Legend Double Dagger 5.8 5.8 100 26 45 3.2 97.70     Fog
07:00 Legend Double Dagger 7.0 6.4 96 26 55 16.1 97.71     LegendNANA
08:00 Legend Double Dagger 6.9 5.9 93 27 46 16.1 97.82     LegendNANA
09:00 Legend Double Dagger 5.8 5.1 95 27 45 12.9 97.97     LegendNANA
10:00 Legend Double Dagger 5.8 4.7 93 27 48 16.1 98.09     LegendNANA
11:00 Legend Double Dagger 6.3 4.1 86 28 39 16.1 98.27     LegendNANA
12:00 Legend Double Dagger 5.7 2.0 77 30 28 16.1 98.43     LegendNANA
13:00 Legend Double Dagger 4.2 0.5 77 33 24 16.1 98.61     LegendNANA
14:00 Legend Double Dagger 4.0 -0.9 71 33 21 16.1 98.73     LegendNANA
15:00 Legend Double Dagger 3.3 -2.0 68 33 18 16.1 98.89     LegendNANA
16:00 Legend Double Dagger 2.8 -1.5 74 32 26 16.1 99.07     LegendNANA
17:00 Legend Double Dagger 2.5 -1.5 75 31 18 16.1 99.20     LegendNANA
18:00 Legend Double Dagger 2.2 -2.0 74 30 30 16.1 99.38     LegendNANA
19:00 Legend Double Dagger 2.3 -1.8 74 29 32 16.1 99.55     LegendNANA
20:00 Legend Double Dagger 2.1 -1.7 76 29 32 16.1 99.67     LegendNANA
21:00 Legend Double Dagger 1.9 -1.1 80 29 26 16.1 99.78     LegendNANA
22:00 Legend Double Dagger 1.6 -1.0 83 29 32 16.1 99.87     LegendNANA
23:00 Legend Double Dagger 1.5 -1.4 81 29 43 16.1 99.99     LegendNANA

Notes on Data Quality.

Legend

  • E = Estimated
  • M = Missing
  • NA = Not Available
  • ‡ = Partner data that is not subject to review by the National Climate Archives
Date modified: